Location: Lugrin
(46.4033°N, 6.6674°E)
Time: 09:18:25
(UTC+00:00)

N. Korean satellite - Pass Details

Date: 03 December 2020
Orbit: 453 x 502 km, 97.2° (Epoch: 16 January)

Event Time Altitude Azimuth Distance (km) Brightness Sun altitude
Rises 17:00:05 0° 199° (SSW) 2,461 10.7 -12.1°
Reaches altitude 10° 17:02:29 10° 217° (SW) 1,599 10.1 -12.5°
Maximum altitude 17:05:05 20° 267° (W) 1,124 9.4 -12.9°
Drops below altitude 10° 17:07:44 10° 316° (NW) 1,626 9.6 -13.3°
Sets 17:10:12 0° 334° (NNW) 2,518 10.3 -13.7°
